WZ8H Weather Reports


time (UTC)temp
C
wind
direction
speed
KPH
gust
KPH
rain 1hr
cm
rain 24hr
cm
rain mn
cm
humidity
%
barometer
mb
20260502170119 7 86 4.8 8.0 0.00 0.64 0.64 65 1017.3
20260502164041 7 96 4.8 16.1 0.00 0.64 0.64 66 1017.5
20260502163513 7 34 3.2 16.1 0.00 0.64 0.64 64 1017.5
20260502163015 7 32 4.8 14.5 0.00 0.64 0.64 66 1017.5
20260502162449 7 53 4.8 12.9 0.00 0.64 0.64 70 1017.5
20260502161915 7 88 4.8 12.9 0.00 0.64 0.64 70 1017.6
20260502161348 6 97 4.8 12.9 0.00 0.66 0.64 72 1017.6
20260502160845 6 51 6.4 14.5 0.00 0.66 0.64 71 1017.6
20260502160622 6 80 6.4 14.5 0.00 0.66 0.64 72 1017.6
20260502152119 5 99 8.0 14.5 0.00 0.69 0.64 73 1017.5
20260502151615 6 90 8.0 14.5 0.00 0.69 0.64 74 1017.4
20260502151112 6 84 6.4 14.5 0.00 0.71 0.64 75 1017.3
20260502150546 6 68 6.4 16.1 0.00 0.71 0.64 75 1017.3
20260502130505 5 29 8.0 19.3 0.00 0.86 0.64 83 1016.7
20260502123427 4 70 6.4 16.1 0.00 0.91 0.64 82 1016.9
20260502122928 4 59 4.8 11.3 0.00 0.91 0.64 82 1016.9
20260502122426 4 88 4.8 14.5 0.00 0.91 0.64 82 1016.8
20260502121928 4 100 4.8 14.5 0.00 0.91 0.64 82 1016.9
20260502121407 4 355 4.8 14.5 0.00 0.91 0.64 82 1016.9
20260502120904 4 34 4.8 14.5 0.00 0.91 0.64 82 1016.8
20260502120403 4 42 4.8 14.5 0.00 0.91 0.64 82 1016.8
20260502115903 4 323 4.8 14.5 0.00 0.91 0.64 82 1016.8
20260502115404 3 71 4.8 16.1 0.00 0.94 0.64 83 1016.7
20260502114843 3 5 6.4 16.1 0.00 0.94 0.64 83 1016.6
20260502114345 3 40 6.4 16.1 0.00 0.97 0.64 82 1016.6
20260502113844 3 16 6.4 16.1 0.00 0.99 0.64 83 1016.6
20260502113322 3 15 6.4 17.7 0.00 1.02 0.64 83 1016.6
20260502112824 3 68 6.4 17.7 0.00 1.04 0.64 83 1016.5
20260502112301 3 348 6.4 17.7 0.00 1.09 0.64 84 1016.4
20260502111744 3 93 6.4 17.7 0.00 1.14 0.64 84 1016.4
20260502111220 3 48 4.8 12.9 0.00 1.17 0.64 84 1016.3
20260502110651 3 72 4.8 12.9 0.00 1.22 0.64 84 1016.1
20260502110130 3 54 4.8 14.5 0.00 1.22 0.64 84 1016.0
20260502105622 3 49 4.8 14.5 0.03 1.24 0.64 85 1016.0
20260502105120 3 66 4.8 14.5 0.03 1.24 0.64 84 1015.9
20260502104552 3 121 6.4 16.1 0.03 1.27 0.64 85 1016.0
20260502104052 3 334 6.4 16.1 0.03 1.27 0.64 85 1016.0
20260502103522 3 355 6.4 14.5 0.03 1.32 0.64 85 1015.9
20260502102958 3 45 4.8 16.1 0.03 1.35 0.64 85 1015.9
20260502102431 3 55 4.8 16.1 0.03 1.37 0.64 85 1015.9
20260502101902 3 52 8.0 19.3 0.03 1.40 0.64 85 1016.0
20260502101341 3 70 6.4 19.3 0.03 1.42 0.64 85 1015.7
20260502100813 3 38 6.4 17.7 0.03 1.45 0.64 86 1015.8
20260502100251 3 121 8.0 20.9 0.03 1.45 0.64 86 1015.7
20260502091039 3 105 9.7 19.3 0.23 1.60 0.61 87 1015.4
20260502090536 3 91 12.9 22.5 0.28 1.63 0.61 88 1015.3
20260502071134 5 211 3.2 11.3 0.00 1.17 0.00 84 1014.9
20260502070630 5 191 3.2 11.3 0.00 1.17 0.00 83 1014.8
20260502070127 6 204 3.2 12.9 0.00 1.17 0.00 83 1014.9
20260502065603 6 205 1.6 12.9 0.00 1.17 0.00 83 1014.9
20260502065035 6 61 1.6 9.7 0.00 1.17 0.00 82 1014.9
20260502064532 6 56 3.2 9.7 0.00 1.17 0.00 81 1014.9
20260502064031 6 56 3.2 12.9 0.00 1.17 0.00 82 1014.9
20260502063528 6 14 4.8 12.9 0.00 1.17 0.00 82 1014.8
20260502063013 6 42 4.8 11.3 0.00 1.17 0.00 82 1014.8
20260502062515 6 82 6.4 12.9 0.00 1.17 0.00 82 1014.9
20260502061951 6 87 6.4 12.9 0.00 1.17 0.00 82 1015.0
20260502061423 6 86 6.4 12.9 0.00 1.17 0.00 83 1015.0
20260502060918 6 56 6.4 12.9 0.00 1.17 0.00 83 1015.0
20260502060355 6 91 8.0 12.9 0.00 1.17 0.00 83 1015.1
20260502055828 6 79 6.4 12.9 0.00 1.17 0.00 83 1015.1
20260502055301 6 86 6.4 11.3 0.00 1.17 0.00 83 1015.3
20260502054758 6 98 6.4 16.1 0.00 1.17 0.00 83 1015.3
20260502054300 6 84 6.4 16.1 0.00 1.17 0.00 83 1015.3
20260502053753 6 90 6.4 16.1 0.00 1.17 0.00 83 1015.4
20260502053228 6 87 8.0 16.1 0.00 1.17 0.00 84 1015.3
20260502052658 6 84 8.0 16.1 0.00 1.17 0.00 84 1015.3
20260502052155 6 51 8.0 16.1 0.00 1.17 0.00 84 1015.4
20260502051629 6 96 8.0 17.7 0.00 1.17 0.00 84 1015.5
20260502051104 6 97 9.7 17.7 0.00 1.17 0.00 85 1015.4
20260502050537 6 85 12.9 20.9 0.00 1.17 0.00 85 1015.4
20260502050035 6 88 14.5 20.9 0.00 1.17 0.00 85 1015.4
20260502045509 6 87 14.5 19.3 0.00 1.17 0.00 86 1015.3
20260502044940 6 85 12.9 19.3 0.00 1.17 0.00 86 1015.2
20260502044438 5 88 12.9 17.7 0.00 1.17 0.00 86 1015.4
20260502043912 5 87 12.9 19.3 0.00 1.17 0.00 86 1015.5
20260502043408 5 96 12.9 19.3 0.00 1.17 0.00 86 1015.5
20260502042843 5 84 12.9 17.7 0.00 1.17 0.00 86 1015.8
20260502042343 5 94 14.5 19.3 0.00 1.17 0.00 87 1015.8
20260502041839 5 101 16.1 22.5 0.00 1.17 0.00 87 1015.7
20260502041321 5 90 16.1 22.5 0.00 1.17 0.00 87 1015.7
20260502040822 5 69 17.7 25.7 0.00 1.17 0.00 88 1015.7
20260502040255 5 77 17.7 25.7 0.00 1.17 0.00 88 1015.5
20260502035752 5 72 16.1 24.1 0.00 1.17 1.17 89 1015.4
20260502035224 5 88 12.9 22.5 0.00 1.17 1.17 89 1015.5
20260502034723 5 71 11.3 24.1 0.00 1.17 1.17 89 1015.5
20260502034219 5 85 11.3 24.1 0.00 1.17 1.17 89 1015.4
20260502033715 5 61 11.3 22.5 0.00 1.17 1.17 88 1015.5
20260502033201 5 102 11.3 24.1 0.00 1.17 1.17 88 1015.5
20260502032658 5 46 12.9 24.1 0.00 1.17 1.17 87 1015.4
20260502032133 5 76 11.3 25.7 0.00 1.17 1.17 88 1015.3
20260502031632 5 24 11.3 25.7 0.00 1.17 1.17 87 1015.3
20260502031128 5 18 8.0 22.5 0.00 1.17 1.17 87 1015.2
20260502030620 6 9 3.2 16.1 0.00 1.17 1.17 87 1015.2
20260502030116 6 46 0.0 14.5 0.00 1.17 1.17 88 1015.2
20260502025551 6 26 0.0 0.0 0.00 1.17 1.17 87 1015.0
20260502025032 5 26 0.0 0.0 0.00 1.17 1.17 87 1015.1
20260502024528 5 26 0.0 0.0 0.00 1.17 1.17 87 1015.0
20260502024028 5 26 0.0 0.0 0.00 1.17 1.17 87 1015.0
20260502023530 5 26 0.0 0.0 0.00 1.17 1.17 87 1015.0
20260502023002 5 26 0.0 0.0 0.00 1.17 1.17 87 1015.1
20260502022501 5 26 0.0 0.0 0.00 1.17 1.17 87 1015.1
20260502021933 6 26 0.0 0.0 0.00 1.17 1.17 87 1015.1
20260502021406 5 26 0.0 0.0 0.00 1.17 1.17 87 1015.1
20260502020904 5 26 0.0 0.0 0.00 1.17 1.17 87 1015.2
20260502020357 5 26 0.0 0.0 0.00 1.17 1.17 87 1015.1
20260502015854 5 26 0.0 0.0 0.00 1.17 1.17 87 1015.1
20260502015351 5 26 0.0 0.0 0.00 1.17 1.17 87 1015.0
20260502014857 5 26 0.0 1.6 0.00 1.17 1.17 87 1014.8
20260502014344 5 26 0.0 3.2 0.00 1.17 1.17 86 1014.7
20260502013846 5 26 1.6 6.4 0.00 1.17 1.17 86 1014.7
20260502013314 5 26 1.6 6.4 0.00 1.17 1.17 86 1014.7
20260502012810 5 355 1.6 6.4 0.00 1.17 1.17 86 1014.7
20260502012308 5 5 3.2 19.3 0.00 1.17 1.17 86 1014.7
20260502011805 5 315 4.8 19.3 0.00 1.17 1.17 86 1014.7
20260502011250 5 309 8.0 22.5 0.00 1.17 1.17 86 1014.6
20260502010744 6 24 6.4 22.5 0.00 1.17 1.17 85 1014.7
20260502010241 6 316 8.0 20.9 0.00 1.17 1.17 85 1014.6
20260502005714 6 287 9.7 20.9 0.00 1.17 1.17 83 1014.6
20260502005215 7 315 8.0 19.3 0.00 1.17 1.17 80 1014.5
20260502004709 7 314 6.4 16.1 0.00 1.17 1.17 77 1014.5
20260502004205 7 261 3.2 14.5 0.00 1.17 1.17 79 1014.3
20260502003702 8 251 1.6 6.4 0.00 1.17 1.17 80 1014.2
20260502003159 8 224 1.6 6.4 0.00 1.17 1.17 79 1014.1
20260502002633 8 224 3.2 6.4 0.00 1.17 1.17 79 1014.1
20260502002129 8 271 3.2 6.4 0.00 1.17 1.17 78 1014.0
20260502001602 8 242 1.6 6.4 0.00 1.17 1.17 77 1014.0
20260502001102 8 265 0.0 0.0 0.00 1.17 1.17 76 1014.0
20260502000537 8 265 0.0 0.0 0.00 1.17 1.17 76 1013.9
20260502000038 8 265 0.0 0.0 0.00 1.17 1.17 76 1013.9
20260501235534 8 265 0.0 0.0 0.00 1.17 1.17 76 1013.9
20260501235035 8 265 0.0 0.0 0.00 1.17 1.17 75 1013.9
20260501234525 8 265 0.0 0.0 0.00 1.17 1.17 75 1013.9
20260501234004 8 265 0.0 0.0 0.00 1.17 1.17 75 1013.9
20260501233459 8 265 0.0 0.0 0.00 1.17 1.17 75 1013.9
20260501232957 8 265 0.0 0.0 0.00 1.17 1.17 74 1013.8
20260501232435 8 265 0.0 3.2 0.00 1.17 1.17 74 1013.9
20260501231913 8 265 0.0 3.2 0.00 1.17 1.17 73 1013.8
20260501231412 8 265 1.6 6.4 0.00 1.17 1.17 74 1013.8
20260501230847 8 265 1.6 6.4 0.00 1.17 1.17 74 1013.7
20260501230350 8 265 1.6 6.4 0.00 1.17 1.17 74 1013.8
20260501225846 8 279 0.0 3.2 0.00 1.17 1.17 74 1013.8
20260501225345 8 11 0.0 3.2 0.00 1.17 1.17 74 1013.8
20260501224825 8 13 1.6 3.2 0.00 1.17 1.17 73 1013.9
20260501224324 8 13 0.0 3.2 0.00 1.17 1.17 74 1013.9
20260501223808 8 21 0.0 3.2 0.00 1.17 1.17 75 1013.9
20260501223252 8 20 1.6 4.8 0.00 1.17 1.17 76 1013.9
20260501222748 8 20 3.2 8.0 0.00 1.17 1.17 76 1014.0
20260501222246 8 53 1.6 8.0 0.00 1.17 1.17 74 1013.9
20260501221745 8 101 3.2 6.4 0.00 1.17 1.17 77 1013.9
20260501221235 8 101 3.2 6.4 0.00 1.17 1.17 76 1013.9
20260501220732 9 101 1.6 6.4 0.00 1.17 1.17 76 1013.9
20260501220235 9 101 0.0 0.0 0.00 1.17 1.17 76 1013.9
20260501215713 9 101 0.0 0.0 0.00 1.17 1.17 77 1013.8
20260501215147 9 101 0.0 1.6 0.00 1.17 1.17 77 1013.8
20260501214643 9 101 0.0 1.6 0.00 1.17 1.17 78 1013.8
20260501214125 8 101 0.0 0.0 0.00 1.17 1.17 77 1013.8
20260501213625 8 101 0.0 0.0 0.00 1.17 1.17 77 1013.7
20260501213102 8 93 0.0 0.0 0.00 1.17 1.17 79 1013.7
20260501212559 8 93 0.0 0.0 0.00 1.17 1.17 79 1013.6
20260501212030 8 93 0.0 0.0 0.00 1.17 1.17 79 1013.7
20260501211517 8 93 0.0 1.6 0.00 1.17 1.17 79 1013.7
20260501211009 8 93 0.0 3.2 0.00 1.17 1.17 79 1013.6
20260501210507 8 93 0.0 3.2 0.00 1.17 1.17 79 1013.5
20260501205943 8 93 1.6 3.2 0.00 1.17 1.17 79 1013.5
20260501205417 8 93 1.6 6.4 0.00 1.17 1.17 79 1013.4
20260501204847 8 93 1.6 4.8 0.00 1.17 1.17 79 1013.3
20260501204346 8 94 1.6 3.2 0.00 1.17 1.17 80 1013.2
20260501203846 8 94 0.0 3.2 0.00 1.17 1.17 80 1013.2
20260501203340 8 94 1.6 4.8 0.00 1.17 1.17 80 1013.2
20260501202837 8 91 1.6 4.8 0.00 1.17 1.17 81 1013.2
20260501202335 8 91 0.0 0.0 0.00 1.17 1.17 81 1013.2
20260501201822 8 91 0.0 0.0 0.00 1.17 1.17 82 1013.1
20260501201256 8 91 0.0 0.0 0.00 1.17 1.17 83 1013.0
20260501200731 8 91 0.0 0.0 0.00 1.17 1.17 84 1013.0
20260501200220 7 91 0.0 4.8 0.00 1.17 1.17 84 1013.0
20260501195721 7 91 1.6 3.2 0.00 1.17 1.17 85 1013.0
20260501195203 7 91 3.2 9.7 0.00 1.17 1.17 84 1013.2
20260501194703 7 91 4.8 9.7 0.00 1.17 1.17 84 1013.2
20260501194202 7 93 4.8 9.7 0.00 1.17 1.17 84 1013.3
20260501193705 7 84 6.4 14.5 0.00 1.17 1.17 83 1013.2
20260501193204 7 87 6.4 14.5 0.00 1.17 1.17 83 1013.2
20260501192638 7 93 6.4 11.3 0.00 1.17 1.17 82 1013.3
20260501192133 7 50 4.8 12.9 0.00 1.17 1.17 82 1013.2
20260501191629 7 71 4.8 12.9 0.00 1.17 1.17 83 1013.3
20260501191127 7 66 6.4 11.3 0.00 1.17 1.17 83 1013.2
20260501190559 7 58 6.4 12.9 0.00 1.17 1.17 84 1013.1
20260501190101 7 88 6.4 14.5 0.00 1.17 1.17 83 1013.1
20260501185529 7 108 6.4 16.1 0.00 1.17 1.17 84 1013.1
20260501185026 7 82 8.0 16.1 0.00 1.17 1.17 85 1013.0
20260501184505 7 79 8.0 16.1 0.00 1.17 1.17 85 1013.0
20260501183933 7 80 6.4 16.1 0.00 1.17 1.17 86 1012.9
20260501183431 7 14 4.8 14.5 0.00 1.17 1.17 87 1012.8
20260501182911 6 335 6.4 16.1 0.00 1.17 1.17 86 1012.9
20260501182401 6 47 6.4 16.1 0.00 1.17 1.17 87 1012.9
20260501181859 6 101 8.0 17.7 0.00 1.17 1.17 87 1012.8
20260501181346 6 83 9.7 17.7 0.00 1.17 1.17 86 1012.8
20260501180849 6 71 9.7 17.7 0.00 1.17 1.17 87 1012.8
20260501180322 6 59 9.7 17.7 0.00 1.17 1.17 86 1012.7
20260501175819 6 55 9.7 17.7 0.00 1.17 1.17 86 1012.7
20260501175250 6 26 8.0 17.7 0.00 1.17 1.17 86 1012.7
20260501174753 6 44 6.4 16.1 0.00 1.17 1.17 86 1012.8
20260501174223 6 85 8.0 16.1 0.00 1.17 1.17 87 1012.7
20260501173656 6 61 8.0 16.1 0.00 1.17 1.17 86 1012.7
20260501173159 6 64 8.0 16.1 0.00 1.17 1.17 86 1012.7
20260501172628 6 92 6.4 14.5 0.00 1.17 1.17 86 1012.8
20260501172100 6 28 8.0 16.1 0.00 1.17 1.17 86 1012.7
20260501171601 6 92 9.7 20.9 0.00 1.17 1.17 86 1012.5